"2009-07-10 00:00:00",1048622,4.218,128.5,3.575,0.63,19.56,109.2593,22.99,23.96,41.86,0,111.2,13.11,23.82,90.5
"2009-07-10 00:00:30",1048623,3.143,138.4,10.61,0.495,19.73,109.2601,22.99,23.99,42.33,0,111.2,13.11,23.83,100.4
"2009-07-10 00:01:00",1048624,3.243,142.6,4.21,0.339,19.76,109.2587,22.99,23.97,42.43,0,111.2,13.11,23.82,104.6
"2009-07-10 00:01:30",1048625,3.226,128.7,5.988,0.466,19.79,109.2402,22.94,23.97,42.87,0,111.2,13.11,23.77,90.7
"2009-07-10 00:02:00",1048626,2.269,140.3,7.845,0.585,19.69,109.2343,22.93,23.95,42.73,0,111.2,13.11,23.76,102.3
"2009-07-10 00:02:30",1048627,2.404,135.4,9.38,0.614,19.54,109.2323,22.92,23.94,42.33,0,111.2,13.11,23.75,97.4
"2009-07-10 00:03:00",1048628,3.094,127.6,7.062,0.339,19.52,109.2332,22.92,23.94,42.4,0,111.2,13.11,23.76,89.6
"2009-07-10 00:03:30",1048629,1.458,129.6,12.5,0.501,19.46,109.2379,22.94,23.94,42.28,0,111.2,13.12,23.77,91.6
"2009-07-10 00:04:00",1048630,1.505,130.8,6.598,0.369,19.39,109.2548,22.98,23.94,42.16,0,111.2,13.12,23.81,92.8
"2009-07-10 00:04:30",1048631,2.645,148.6,7.528,0.289,19.3,109.2593,22.99,23.95,41.93,0,111.2,13.12,23.82,110.6
"2009-07-10 00:05:00",1048632,3.164,150.4,10.26,0.275,19.38,109.2595,22.99,23.96,41.84,0,111.2,13.12,23.82,112.4
"2009-07-10 00:05:30",1048633,2.484,146.8,8.68,0.463,19.43,109.2637,23,23.97,41.87,0,111.2,13.12,23.84,108.8
"2009-07-10 00:06:00",1048634,2.433,136.8,3.16,0.269,19.4,109.2803,23.05,24,41.97,0,111.2,13.12,23.88,98.8
"2009-07-10 00:06:30",1048635,2.31,139.1,2.617,0.196,19.42,109.2926,23.08,24.01,41.92,0,111.2,13.12,23.91,101.1
"2009-07-10 00:07:00",1048636,2.371,137.6,4.371,0.518,19.41,109.2929,23.08,24.04,41.84,0,111.2,13.12,23.91,99.6
"2009-07-10 00:07:30",1048637,2.351,135.1,2.617,0.1,19.4,109.2985,23.09,24.06,41.67,0,111.2,13.12,23.93,97.1
"2009-07-10 00:08:00",1048638,2.591,120.9,9.67,0.295,19.5,109.3165,23.14,24.08,41.66,0,111.2,13.12,23.97,82.9
"2009-07-10 00:08:30",1048639,1.791,120.9,13.56,0.241,19.4,109.3266,23.16,24.1,41.68,0,111.2,13.12,24.00,82.9
"2009-07-10 00:09:00",1048640,1.883,119.3,9.78,0.237,19.34,109.3266,23.16,24.13,41.51,0,111.2,13.12,24.00,81.3
"2009-07-10 00:09:30",1048641,2.134,106.8,4.543,0.306,19.42,109.328,23.17,24.14,41.56,0,111.2,13.12,24.00,68.8
"2009-07-10 00:10:00",1048642,1.61,113.9,8.92,0.225,19.37,109.3353,23.19,24.16,41.53,0,111.2,13.12,24.02,75.9
"2009-07-10 00:10:30",1048643,1.87,115.7,5.397,0.456,19.34,109.3516,23.23,24.18,41.45,0,111.2,13.12,24.06,77.7
"2009-07-10 00:11:00",1048644,1.976,112.2,8.77,0.297,19.36,109.36,23.25,24.21,41.42,0,111.2,13.12,24.08,74.2
"2009-07-10 00:11:30",1048645,1.355,132.4,5.609,0.274,19.35,109.3603,23.25,24.2,41.48,0,111.2,13.12,24.08,94.4
"2009-07-10 00:12:00",1048646,0.931,125.7,15.33,0.289,19.42,109.3603,23.25,24.22,41.51,0,111.2,13.12,24.08,87.7
"2009-07-10 00:12:30",1048647,1.139,118.5,18.5,0.258,19.46,109.3653,23.26,24.24,41.79,0,111.2,13.12,24.10,80.5
"2009-07-10 00:13:00",1048648,1.485,117.7,17.07,0.457,19.38,109.3614,23.25,24.24,41.92,0,111.2,13.12,24.09,79.7
"2009-07-10 00:13:30",1048649,1.745,144,33,0.339,19.37,109.3603,23.25,24.26,41.83,0,111.2,13.12,24.08,106.0
"2009-07-10 00:14:00",1048650,1.856,175.4,7.207,0.085,19.42,109.3636,23.26,24.26,41.72,0,111.2,13.12,24.09,137.4
"2009-07-10 00:14:30",1048651,1.887,158.2,8.78,0.232,19.36,109.3715,23.28,24.27,41.66,0,111.2,13.12,24.11,120.2
"2009-07-10 00:15:00",1048652,1.913,129.9,13.24,0.164,19.36,109.388,23.32,24.28,41.56,0,111.2,13.11,24.16,91.9
"2009-07-10 00:15:30",1048653,2.807,112.1,5.291,0.73,19.4,109.3939,23.34,24.29,41.41,0,111.2,13.11,24.17,74.1
"2009-07-10 00:16:00",1048654,3.14,113.5,7.479,0.211,19.48,109.3953,23.34,24.31,41.15,0,111.2,13.11,24.17,75.5
"2009-07-10 00:16:30",1048655,2.768,119.3,5.029,0.306,19.59,109.3965,23.34,24.31,41.29,0,111.2,13.1,24.18,81.3
"2009-07-10 00:17:00",1048656,2.413,123.9,8.68,0.424,19.68,109.3903,23.33,24.32,41.65,0,111.2,13.1,24.16,85.9
"2009-07-10 00:17:30",1048657,2.266,154.1,19.14,0.418,19.69,109.3634,23.26,24.29,42.01,0,111.2,13.1,24.09,116.1
"2009-07-10 00:18:00",1048658,2.567,167.3,12.97,0.414,19.69,109.3398,23.2,24.23,42.02,0,111.2,13.1,24.03,129.3
"2009-07-10 00:18:30",1048659,2.776,138.6,7.399,0.946,19.54,109.3269,23.17,24.21,41.54,0,111.2,13.1,24.00,100.6
"2009-07-10 00:19:00",1048660,3.638,134.6,4.517,0.416,19.57,109.3123,23.13,24.18,41.46,0,111.2,13.1,23.96,96.6
"2009-07-10 00:19:30",1048661,3.829,133.5,5.361,0.36,19.68,109.3019,23.1,24.13,41.6,0,111.2,13.1,23.93,95.5
"2009-07-10 00:20:00",1048662,2.9,123.8,5.177,0.353,19.72,109.2946,23.08,24.1,41.68,0,111.2,13.1,23.92,85.8
"2009-07-10 00:20:30",1048663,3.623,138.6,3.977,0.15,19.65,109.2929,23.08,24.08,41.77,0,111.2,13.11,23.91,100.6
"2009-07-10 00:21:00",1048664,3.53,144.5,4.543,0.236,19.69,109.2952,23.08,24.09,41.84,0,111.2,13.11,23.92,106.5
"2009-07-10 00:21:30",1048665,3.371,147.6,2.722,0.156,19.69,109.3016,23.1,24.08,41.79,0,111.2,13.11,23.93,109.6
"2009-07-10 00:22:00",1048666,3.083,144.2,4.01,0.121,19.7,109.3196,23.15,24.09,41.73,0,111.2,13.11,23.98,106.2
"2009-07-10 00:22:30",1048667,2.552,124.5,9.37,0.387,19.83,109.3266,23.16,24.1,41.87,0,111.2,13.11,24.00,86.5
"2009-07-10 00:23:00",1048668,1.873,133.1,6.949,0.294,19.73,109.3266,23.16,24.11,41.96,0,111.2,13.11,24.00,95.1
"2009-07-10 00:23:30",1048669,1.814,149.4,8.08,0.317,19.67,109.3319,23.18,24.13,41.88,0,111.2,13.11,24.01,111.4
"2009-07-10 00:24:00",1048670,1.864,138.4,11.26,0.139,19.56,109.3375,23.19,24.15,41.51,0,111.2,13.11,24.03,100.4
"2009-07-10 00:24:30",1048671,1.832,150.9,18.56,0.262,19.63,109.3325,23.18,24.16,41.63,0,111.2,13.11,24.01,112.9
"2009-07-10 00:25:00",1048672,2.847,165.1,4.336,0.579,19.58,109.3266,23.16,24.15,41.51,0,111.2,13.11,24.00,127.1
"2009-07-10 00:25:30",1048673,3.022,147,10.81,0.233,19.61,109.3266,23.16,24.14,41.46,0,111.2,13.11,24.00,109.0
"2009-07-10 00:26:00",1048674,3.54,138.4,3.955,0.335,19.56,109.3047,23.11,24.14,41.18,0,111.2,13.11,23.94,100.4
"2009-07-10 00:26:30",1048675,3.606,136.8,5.818,0.237,19.59,109.2884,23.07,24.09,41.42,0,111.2,13.11,23.90,98.8
"2009-07-10 00:27:00",1048676,3.734,140,8.15,0.308,19.68,109.2727,23.03,24.06,41.56,0,111.2,13.11,23.86,102.0
"2009-07-10 00:27:30",1048677,3.961,160,6.306,0.244,19.77,109.2851,23.06,24.03,41.62,0,111.2,13.11,23.89,122.0
"2009-07-10 00:28:00",1048678,3.722,156.3,2.581,0.265,19.7,109.2929,23.08,24.04,41.74,0,111.2,13.11,23.91,118.3
"2009-07-10 00:28:30",1048679,3.221,156.4,1.518,0.115,19.64,109.2929,23.08,24.04,41.73,0,111.2,13.11,23.91,118.4
"2009-07-10 00:29:00",1048680,3.25,154.1,2.548,0.161,19.6,109.2966,23.09,24.05,41.68,0,111.2,13.11,23.92,116.1
"2009-07-10 00:29:30",1048681,2.679,151.6,2.23,0.137,19.58,109.3042,23.11,24.07,41.58,0,111.2,13.11,23.94,113.6
"2009-07-10 00:30:00",1048682,2.374,149.4,2.077,0.147,19.55,109.3232,23.16,24.07,41.26,0,111.2,13.11,23.99,111.4
"2009-07-10 00:30:30",1048683,2.37,145.1,2.835,0.11,19.54,109.3266,23.16,24.09,41.46,0,111.2,13.11,24.00,107.1
"2009-07-10 00:31:00",1048684,2.339,143.5,2.15,0.054,19.55,109.3266,23.16,24.12,41.22,0,111.2,13.11,24.00,105.5
"2009-07-10 00:31:30",1048685,2.333,136,1.632,0.141,19.56,109.3283,23.17,24.14,41.16,0,111.2,13.11,24.00,98.0
"2009-07-10 00:32:00",1048686,2.1,138.7,3.327,0.08,19.56,109.3361,23.19,24.15,41.06,0,111.2,13.11,24.02,100.7
"2009-07-10 00:32:30",1048687,2.216,137.5,1.725,0.101,19.54,109.353,23.23,24.18,41.04,0,111.2,13.1,24.07,99.5
"2009-07-10 00:33:00",1048688,2.241,132.5,2.274,0.089,19.55,109.3603,23.25,24.18,40.98,0,111.2,13.1,24.08,94.5
"2009-07-10 00:33:30",1048689,1.904,132.2,3.754,0.187,19.59,109.3605,23.25,24.19,40.79,0,111.2,13.1,24.08,94.2
"2009-07-10 00:34:00",1048690,2.111,129.7,3.856,0.261,19.57,109.3662,23.27,24.22,40.65,0,111.2,13.1,24.10,91.7
"2009-07-10 00:34:30",1048691,2.026,117.7,4.923,0.238,19.63,109.3743,23.29,24.24,40.52,0,111.2,13.1,24.12,79.7
"2009-07-10 00:35:00",1048692,1.651,106.4,4.675,0.185,19.64,109.3923,23.33,24.26,40.5,0,111.2,13.1,24.17,68.4
"2009-07-10 00:35:30",1048693,1.39,110.6,6.329,0.114,19.58,109.3939,23.34,24.28,40.47,0,111.2,13.1,24.17,72.6
"2009-07-10 00:36:00",1048694,2.169,131.1,6.886,0.417,19.49,109.3967,23.34,24.3,40.43,0,111.2,13.1,24.18,93.1
"2009-07-10 00:36:30",1048695,2.868,132.3,4.824,0.253,19.58,109.4021,23.36,24.32,40.46,0,111.2,13.1,24.19,94.3
"2009-07-10 00:37:00",1048696,2.639,138.4,4.376,0.376,19.63,109.4077,23.37,24.32,40.4,0,111.2,13.1,24.21,100.4
"2009-07-10 00:37:30",1048697,2.467,127.4,17.11,0.205,19.67,109.4169,23.4,24.33,40.5,0,111.2,13.1,24.23,89.4
"2009-07-10 00:38:00",1048698,2.867,135.4,4.032,0.278,19.72,109.4242,23.42,24.35,40.45,0,111.2,13.11,24.25,97.4
"2009-07-10 00:38:30",1048699,2.75,137.6,5.149,0.214,19.72,109.4273,23.42,24.38,40.4,0,111.2,13.11,24.26,99.6
"2009-07-10 00:39:00",1048700,3.313,135.3,4.133,0.27,19.76,109.4276,23.42,24.38,40.34,0,111.2,13.11,24.26,97.3
"2009-07-10 00:39:30",1048701,3.108,124.8,2.628,0.36,19.78,109.4307,23.43,24.4,40.26,0,111.2,13.11,24.27,86.8
"2009-07-10 00:40:00",1048702,2.387,134.5,4.454,0.319,19.78,109.4355,23.44,24.41,40.21,0,111.2,13.11,24.28,96.5
"2009-07-10 00:40:30",1048703,3.192,139.3,5.404,0.355,19.74,109.443,23.46,24.44,40.17,0,111.2,13.11,24.30,101.3
"2009-07-10 00:41:00",1048704,2.872,147.8,5.419,0.331,19.73,109.4562,23.5,24.42,40.16,0,111.2,13.11,24.33,109.8
"2009-07-10 00:41:30",1048705,1.986,165.8,4.889,0.497,19.81,109.4599,23.51,24.45,40.11,0,111.2,13.11,24.34,127.8
"2009-07-10 00:42:00",1048706,3.362,173,8.98,0.698,19.81,109.4613,23.51,24.47,40.13,0,111.2,13.11,24.34,135.0
"2009-07-10 00:42:30",1048707,3.181,170,10.28,0.184,19.84,109.454,23.49,24.46,40.24,0,111.2,13.11,24.33,132.0
"2009-07-10 00:43:00",1048708,3.516,165.6,5.834,0.245,19.93,109.4313,23.43,24.46,40.62,0,111.2,13.11,24.27,127.6
"2009-07-10 00:43:30",1048709,2.991,165.1,5.221,0.376,19.87,109.4155,23.39,24.43,40.64,0,111.2,13.11,24.23,127.1
"2009-07-10 00:44:00",1048710,2.736,149.2,3.58,0.166,19.81,109.3937,23.34,24.38,40.7,0,111.2,13.11,24.17,111.2
"2009-07-10 00:44:30",1048711,2.415,146.7,6.175,0.174,19.8,109.3866,23.32,24.36,40.66,0,111.2,13.11,24.15,108.7
"2009-07-10 00:45:00",1048712,1.956,139.2,4.337,0.117,19.76,109.3869,23.32,24.33,40.65,0,111.2,13.11,24.15,101.2
"2009-07-10 00:45:30",1048713,2.18,147,5.787,0.118,19.64,109.3923,23.33,24.31,40.72,0,111.2,13.11,24.17,109.0
"2009-07-10 00:46:00",1048714,1.826,158.7,6.646,0.09,19.7,109.3939,23.34,24.32,40.76,0,111.2,13.11,24.17,120.7
"2009-07-10 00:46:30",1048715,1.867,168.1,2.172,0.153,19.63,109.3939,23.34,24.34,40.82,0,111.2,13.11,24.17,130.1
"2009-07-10 00:47:00",1048716,1.812,157.9,4.868,0.182,19.56,109.3939,23.34,24.34,40.8,0,111.2,13.11,24.17,119.9
"2009-07-10 00:47:30",1048717,1.768,154.8,5.703,0.175,19.63,109.3951,23.34,24.35,40.81,0,111.2,13.11,24.17,116.8
"2009-07-10 00:48:00",1048718,1.695,157.1,4.784,0.125,19.67,109.4035,23.36,24.36,40.8,0,111.2,13.11,24.20,119.1
"2009-07-10 00:48:30",1048719,1.336,156.1,2.959,0.07,19.46,109.4105,23.38,24.36,40.81,0,111.2,13.11,24.21,118.1
"2009-07-10 00:49:00",1048720,1.443,142.4,7.417,0.178,19.53,109.4217,23.41,24.38,40.77,0,111.2,13.11,24.24,104.4
"2009-07-10 00:49:30",1048721,1.672,136.1,5.595,0.321,19.58,109.4242,23.42,24.39,40.74,0,111.2,13.1,24.25,98.1
"2009-07-10 00:50:00",1048722,1.889,136,4.85,0.112,19.65,109.4273,23.42,24.4,40.75,0,111.2,13.1,24.26,98.0
"2009-07-10 00:50:30",1048723,1.739,123.6,6.074,0.319,19.66,109.4276,23.42,24.41,40.73,0,111.2,13.1,24.26,85.6
"2009-07-10 00:51:00",1048724,1.913,131.6,6.825,0.152,19.65,109.4282,23.43,24.42,40.66,0,111.2,13.1,24.26,93.6
"2009-07-10 00:51:30",1048725,1.842,126.9,1.977,0.135,19.69,109.4352,23.44,24.44,40.59,0,111.2,13.1,24.28,88.9
"2009-07-10 00:52:00",1048726,2.01,132.3,3.435,0.162,19.68,109.4481,23.48,24.44,40.49,0,111.2,13.1,24.31,94.3
"2009-07-10 00:52:30",1048727,2.054,136.5,1.662,0.187,19.74,109.4613,23.51,24.47,40.42,0,111.2,13.1,24.34,98.5
"2009-07-10 00:53:00",1048728,2.058,135.9,2.652,0.061,19.76,109.4613,23.51,24.48,40.36,0,111.2,13.1,24.34,97.9
"2009-07-10 00:53:30",1048729,2.062,135.5,4.443,0.27,19.71,109.4613,23.51,24.49,40.3,0,111.2,13.1,24.34,97.5
"2009-07-10 00:54:00",1048730,1.729,149.2,4.283,0.081,19.78,109.4705,23.53,24.52,40.29,0,111.2,13.1,24.37,111.2
"2009-07-10 00:54:30",1048731,1.564,144.5,4.636,0.231,19.7,109.4829,23.57,24.54,40.28,0,111.2,13.1,24.40,106.5
"2009-07-10 00:55:00",1048732,1.751,153.7,6.421,0.107,19.7,109.4921,23.59,24.53,40.24,0,111.2,13.1,24.42,115.7
"2009-07-10 00:55:30",1048733,1.756,150.4,3.868,0.095,19.76,109.4949,23.6,24.56,40.26,0,111.2,13.11,24.43,112.4
"2009-07-10 00:56:00",1048734,1.62,159.8,2.771,0.063,19.77,109.4949,23.6,24.58,40.25,0,111.2,13.11,24.43,121.8
"2009-07-10 00:56:30",1048735,1.647,163.6,6.365,0.1,19.75,109.4978,23.6,24.59,40.19,0,111.2,13.11,24.44,125.6
"2009-07-10 00:57:00",1048736,1.699,156.6,2.219,0.119,19.73,109.5039,23.62,24.61,40.19,0,111.2,13.11,24.45,118.6
"2009-07-10 00:57:30",1048737,2.015,150.8,2.474,0.057,19.53,109.5166,23.65,24.62,40.1,0,111.2,13.11,24.49,112.8
"2009-07-10 00:58:00",1048738,2.148,150.1,2.568,0.178,19.65,109.5278,23.68,24.64,39.97,0,111.2,13.11,24.52,112.1
"2009-07-10 00:58:30",1048739,2.035,153.9,6.435,0.112,19.62,109.5286,23.68,24.66,39.88,0,111.2,13.11,24.52,115.9
"2009-07-10 00:59:00",1048740,2.047,155.2,3.08,0.125,19.61,109.5286,23.68,24.66,39.71,0,111.2,13.11,24.52,117.2
"2009-07-10 00:59:30",1048741,2.09,153.6,2.927,0.109,19.64,109.5311,23.69,24.68,39.62,0,111.2,13.11,24.52,115.6
"2009-07-10 01:00:00",1048742,2.247,143.8,5.694,0.107,19.7,109.537,23.71,24.7,39.63,0,111.2,13.11,24.54,105.8
"2009-07-10 01:00:30",1048743,2.305,140.2,2.873,0.169,19.73,109.5384,23.71,24.7,39.61,0,111.2,13.11,24.54,102.2
"2009-07-10 01:01:00",1048744,2.265,145.4,5.767,0.109,19.79,109.5452,23.73,24.71,39.67,0,111.2,13.11,24.56,107.4
"2009-07-10 01:01:30",1048745,1.886,168.3,11.68,0.32,19.89,109.5539,23.75,24.73,39.7,0,111.2,13.11,24.58,130.3
"2009-07-10 01:02:00",1048746,2.22,158.1,6.408,0.191,19.87,109.5426,23.72,24.73,39.64,0,111.2,13.11,24.55,120.1
"2009-07-10 01:02:30",1048747,2.207,145.6,4.759,0.271,19.9,109.537,23.71,24.73,39.88,0,111.2,13.11,24.54,107.6
"2009-07-10 01:03:00",1048748,2.577,151,7.414,0.242,19.9,109.5295,23.69,24.72,40.09,0,111.2,13.11,24.52,113.0
"2009-07-10 01:03:30",1048749,2.706,158.6,4.399,0.179,19.91,109.5286,23.68,24.7,40.16,0,111.2,13.11,24.52,120.6
"2009-07-10 01:04:00",1048750,2.532,167,2.802,0.142,19.89,109.5286,23.68,24.69,40.23,0,111.2,13.11,24.52,129.0
"2009-07-10 01:04:30",1048751,2.32,166,2.611,0.126,19.93,109.5286,23.68,24.71,40.23,0,111.2,13.11,24.52,128.0
"2009-07-10 01:05:00",1048752,2.451,156.5,3.243,0.247,19.87,109.5286,23.68,24.69,40.2,0,111.2,13.11,24.52,118.5
"2009-07-10 01:05:30",1048753,2.844,147.5,3.942,0.363,19.91,109.5286,23.68,24.7,40.1,0,111.2,13.11,24.52,109.5
"2009-07-10 01:06:00",1048754,2.666,150.2,8.39,0.384,19.94,109.5283,23.68,24.69,40.15,0,111.2,13.11,24.52,112.2
"2009-07-10 01:06:30",1048755,2.744,148.7,5.16,0.136,19.91,109.5255,23.68,24.69,40.1,0,111.2,13.1,24.51,110.7
"2009-07-10 01:07:00",1048756,3.247,161.3,4.192,0.23,20.02,109.5163,23.65,24.69,40.22,0,111.2,13.1,24.49,123.3
"2009-07-10 01:07:30",1048757,3.111,159.8,4.572,0.14,20.04,109.4989,23.61,24.68,40.38,0,111.2,13.1,24.44,121.8
"2009-07-10 01:08:00",1048758,3.192,177.5,3.481,0.173,20.08,109.4949,23.6,24.65,40.6,0,111.2,13.1,24.43,139.5
"2009-07-10 01:08:30",1048759,3.062,170.5,3.896,0.125,20.1,109.4949,23.6,24.64,40.72,0,111.2,13.1,24.43,132.5
"2009-07-10 01:09:00",1048760,2.95,162,6.538,0.129,20.12,109.4949,23.6,24.62,40.67,0,111.2,13.1,24.43,124.0
"2009-07-10 01:09:30",1048761,2.912,161.3,2.179,0.076,20.13,109.4927,23.59,24.62,40.66,0,111.2,13.1,24.43,123.3
"2009-07-10 01:10:00",1048762,3.003,156.9,3.02,0.06,20.09,109.4924,23.59,24.61,40.43,0,111.2,13.1,24.42,118.9
"2009-07-10 01:10:30",1048763,2.858,155.9,1.16,0.108,20.07,109.4891,23.58,24.62,40.54,0,111.2,13.1,24.42,117.9
"2009-07-10 01:11:00",1048764,2.596,163.6,5.268,0.097,20.01,109.479,23.56,24.6,40.6,0,111.2,13.1,24.39,125.6
"2009-07-10 01:11:30",1048765,2.221,160.5,3.481,0.098,20.08,109.47,23.53,24.6,40.72,0,111.2,13.1,24.37,122.5
"2009-07-10 01:12:00",1048766,1.907,162.8,3.797,0.188,20.09,109.4635,23.52,24.59,41.02,0,111.2,13.1,24.35,124.8
"2009-07-10 01:12:30",1048767,1.66,143.4,4.924,0.093,19.99,109.4613,23.51,24.59,41.21,0,111.2,13.11,24.34,105.4
"2009-07-10 01:13:00",1048768,2.079,131,3.426,0.128,19.96,109.4613,23.51,24.59,41.18,0,111.2,13.11,24.34,93.0
"2009-07-10 01:13:30",1048769,2.353,150.3,15.27,0.317,20.01,109.4616,23.51,24.57,41,0,111.2,13.11,24.35,112.3
"2009-07-10 01:14:00",1048770,2.56,162.2,1.781,0.088,19.99,109.4608,23.51,24.55,40.82,0,111.2,13.11,24.34,124.2
"2009-07-10 01:14:30",1048771,2.628,156.9,3.202,0.12,19.97,109.4573,23.5,24.56,40.74,0,111.2,13.11,24.33,118.9
"2009-07-10 01:15:00",1048772,2.535,153.9,2.329,0.086,19.98,109.4519,23.49,24.55,40.73,0,111.2,13.11,24.32,115.9
"2009-07-10 01:15:30",1048773,2.611,155.8,2.334,0.25,20.03,109.4516,23.49,24.55,40.75,0,111.2,13.12,24.32,117.8
"2009-07-10 01:16:00",1048774,2.866,159.9,1.497,0.116,20.06,109.4495,23.48,24.54,40.74,0,111.2,13.12,24.31,121.9
"2009-07-10 01:16:30",1048775,2.856,160.2,2.118,0.07,20.1,109.4502,23.48,24.53,40.74,0,111.2,13.12,24.32,122.2
"2009-07-10 01:17:00",1048776,2.714,158.5,3.916,0.162,20.1,109.4529,23.49,24.53,40.8,0,111.2,13.12,24.32,120.5
"2009-07-10 01:17:30",1048777,2.817,151,2.637,0.367,20.08,109.4521,23.49,24.52,40.81,0,111.2,13.12,24.32,113.0
"2009-07-10 01:18:00",1048778,3.304,156,2.301,0.136,20.09,109.4531,23.49,24.53,40.85,0,111.2,13.12,24.32,118.0
"2009-07-10 01:18:30",1048779,3.21,154.3,2.22,0.125,20.09,109.4528,23.49,24.51,40.88,0,111.2,13.12,24.32,116.3
"2009-07-10 01:19:00",1048780,3.117,153.2,3.677,0.257,20.16,109.4528,23.49,24.5,40.91,0,111.2,13.12,24.32,115.2
"2009-07-10 01:19:30",1048781,2.441,149,3.499,0.156,20.13,109.4537,23.49,24.5,40.89,0,111.2,13.12,24.33,111.0
"2009-07-10 01:20:00",1048782,2.778,155.1,5.046,0.12,20.17,109.4546,23.49,24.5,40.93,0,111.2,13.12,24.33,117.1
"2009-07-10 01:20:30",1048783,2.663,153.7,6.041,0.148,20.19,109.4552,23.5,24.5,41.07,0,111.2,13.12,24.33,115.7
"2009-07-10 01:21:00",1048784,2.774,151.7,4.331,0.193,20.15,109.455,23.49,24.49,41.35,0,111.2,13.12,24.33,113.7
"2009-07-10 01:21:30",1048785,2.709,155.7,6.555,0.095,20.14,109.4401,23.46,24.49,41.56,0,111.2,13.12,24.29,117.7
"2009-07-10 01:22:00",1048786,2.761,157.6,2.097,0.12,20.11,109.4242,23.42,24.45,41.58,0,111.2,13.12,24.25,119.6
"2009-07-10 01:22:30",1048787,2.852,160.7,4.272,0.179,20.13,109.4224,23.41,24.43,41.82,0,111.2,13.12,24.24,122.7
"2009-07-10 01:23:00",1048788,2.835,155.2,6.162,0.186,20.12,109.4228,23.41,24.42,41.81,0,111.2,13.12,24.25,117.2
"2009-07-10 01:23:30",1048789,2.871,147.7,2.858,0.1,20.05,109.4262,23.42,24.42,41.66,0,111.2,13.12,24.25,109.7
"2009-07-10 01:24:00",1048790,2.754,155.7,1.913,0.145,20.14,109.4268,23.42,24.4,41.33,0,111.1,13.11,24.26,117.7
"2009-07-10 01:24:30",1048791,2.595,160.6,2.47,0.109,20.14,109.4268,23.42,24.41,41.25,0,111.1,13.11,24.26,122.6
"2009-07-10 01:25:00",1048792,2.643,157.4,2.948,0.088,20.07,109.4292,23.43,24.42,41.2,0,111.1,13.11,24.26,119.4
"2009-07-10 01:25:30",1048793,2.751,161.6,4.66,0.183,20.18,109.4284,23.43,24.4,41.2,0,111.1,13.11,24.26,123.6
"2009-07-10 01:26:00",1048794,2.986,161.6,3.007,0.1,20.17,109.4279,23.42,24.41,41.22,0,111.1,13.11,24.26,123.6
"2009-07-10 01:26:30",1048795,3.094,161.7,2.191,0.212,20.15,109.4252,23.42,24.41,41.23,0,111.1,13.11,24.25,123.7
"2009-07-10 01:27:00",1048796,3.519,161.3,4.658,0.179,20.18,109.4134,23.39,24.4,41.27,0,111.1,13.11,24.22,123.3
"2009-07-10 01:27:30",1048797,3.583,166.8,1.366,0.074,20.29,109.4055,23.37,24.39,41.37,0,111.1,13.11,24.20,128.8
"2009-07-10 01:28:00",1048798,3.748,165.4,3.269,0.113,20.24,109.4005,23.35,24.39,41.44,0,111.1,13.11,24.19,127.4
"2009-07-10 01:28:30",1048799,3.601,167.1,1.922,0.202,20.32,109.3971,23.35,24.39,41.46,0,111.1,13.11,24.18,129.1
"2009-07-10 01:29:00",1048800,3.817,170.7,1.911,0.214,20.3,109.3971,23.35,24.37,41.56,0,111.1,13.12,24.18,132.7
"2009-07-10 01:29:30",1048801,3.536,169.1,1.835,0.108,20.31,109.3895,23.33,24.37,41.68,0,111.1,13.12,24.16,131.1
"2009-07-10 01:30:00",1048802,3.45,170.7,2.521,0.209,20.29,109.3713,23.28,24.34,41.65,0,111.1,13.12,24.11,132.7
"2009-07-10 01:30:30",1048803,3.575,167.3,3.312,0.199,20.29,109.3643,23.26,24.34,41.73,0,111.1,13.12,24.09,129.3
"2009-07-10 01:31:00",1048804,3.816,164.5,1.19,0.09,20.26,109.3634,23.26,24.33,41.86,0,111.1,13.12,24.09,126.5
"2009-07-10 01:31:30",1048805,3.64,166.1,1.219,0.057,20.32,109.3578,23.24,24.31,41.84,0,111.1,13.12,24.08,128.1
"2009-07-10 01:32:00",1048806,3.586,164.7,0.864,0.093,20.31,109.3384,23.2,24.3,42.36,0,111.1,13.12,24.03,126.7
"2009-07-10 01:32:30",1048807,3.598,165.8,1.108,0.108,20.32,109.3317,23.18,24.28,42.17,0,111.1,13.12,24.01,127.8
"2009-07-10 01:33:00",1048808,3.617,166.9,0.726,0.158,20.34,109.3297,23.17,24.25,41.99,0,111.1,13.12,24.01,128.9
"2009-07-10 01:33:30",1048809,3.495,164.7,1.793,0.092,20.32,109.3295,23.17,24.25,42.09,0,111.1,13.12,24.00,126.7
"2009-07-10 01:34:00",1048810,3.358,163.8,1.704,0.09,20.32,109.3151,23.14,24.23,42.08,0,111.1,13.12,23.97,125.8
"2009-07-10 01:34:30",1048811,3.534,163.5,1.761,0.097,20.32,109.302,23.1,24.22,42.22,0,111.1,13.12,23.93,125.5
"2009-07-10 01:35:00",1048812,3.421,167,2.35,0.041,20.32,109.297,23.09,24.2,42.28,0,111.1,13.12,23.92,129.0
"2009-07-10 01:35:30",1048813,3.019,166.2,3.412,0.133,20.33,109.2973,23.09,24.19,42.38,0,111.1,13.12,23.92,128.2
"2009-07-10 01:36:00",1048814,3.092,160.9,1.883,0.094,20.27,109.2958,23.09,24.16,42.35,0,111.1,13.12,23.92,122.9
"2009-07-10 01:36:30",1048815,3.241,163.9,1.378,0.173,20.3,109.286,23.06,24.15,42.43,0,111.1,13.12,23.89,125.9
"2009-07-10 01:37:00",1048816,3.19,160.6,0.909,0.085,20.27,109.2753,23.03,24.14,42.37,0,111.1,13.12,23.87,122.6
"2009-07-10 01:37:30",1048817,3.07,161,1.198,0.082,20.28,109.2709,23.02,24.12,42.31,0,111.1,13.12,23.85,123.0
"2009-07-10 01:38:00",1048818,3.39,158.9,1.614,0.099,20.31,109.2694,23.02,24.11,42.31,0,111.1,13.12,23.85,120.9
"2009-07-10 01:38:30",1048819,3.252,163.3,3.662,0.196,20.34,109.2697,23.02,24.11,42.3,0,111.1,13.12,23.85,125.3
"2009-07-10 01:39:00",1048820,3.442,158.9,1.207,0.086,20.31,109.2721,23.02,24.09,42.33,0,111.1,13.13,23.86,120.9
"2009-07-10 01:39:30",1048821,3.359,169.1,4.299,0.301,20.42,109.2713,23.02,24.08,42.4,0,111.1,13.13,23.85,131.1
"2009-07-10 01:40:00",1048822,3.258,163.1,1.575,0.105,20.31,109.2609,23,24.07,42.41,0,111.1,13.13,23.83,125.1
"2009-07-10 01:40:30",1048823,3.006,164.9,1.236,0.174,20.37,109.2544,22.98,24.04,42.4,0,111.1,13.13,23.81,126.9
"2009-07-10 01:41:00",1048824,3.24,162.8,2.078,0.194,20.32,109.2554,22.98,24.03,42.53,0,111.1,13.12,23.81,124.8
"2009-07-10 01:41:30",1048825,3.14,159.1,3.973,0.154,20.31,109.256,22.98,24.02,43.22,0,111.1,13.12,23.82,121.1
"2009-07-10 01:42:00",1048826,2.754,158.8,2.815,0.109,20.29,109.2563,22.98,24.01,43.37,0,111.1,13.12,23.82,120.8
"2009-07-10 01:42:30",1048827,2.751,159,3.862,0.067,20.3,109.2484,22.96,24.01,43.47,0,111.1,13.12,23.80,121.0
"2009-07-10 01:43:00",1048828,2.808,152.9,6.529,0.108,20.25,109.2361,22.93,23.99,43.04,0,111.1,13.12,23.76,114.9
"2009-07-10 01:43:30",1048829,3.091,153.7,5.555,0.146,20.3,109.2319,22.92,23.99,43.03,0,111.1,13.12,23.75,115.7
"2009-07-10 01:44:00",1048830,2.791,158.3,3.545,0.132,20.33,109.2284,22.91,23.98,42.98,0,111.1,13.12,23.74,120.3
"2009-07-10 01:44:30",1048831,2.416,158.9,4.381,0.134,20.31,109.2271,22.91,23.97,42.92,0,111.1,13.12,23.74,120.9
"2009-07-10 01:45:00",1048832,2.561,159.8,2.527,0.163,20.31,109.2275,22.91,23.96,42.95,0,111.1,13.12,23.74,121.8
"2009-07-10 01:45:30",1048833,2.923,157,1.338,0.132,20.3,109.2293,22.91,23.97,42.9,0,111.1,13.12,23.75,119.0
"2009-07-10 01:46:00",1048834,2.726,156.3,0.913,0.045,20.29,109.2312,22.92,23.94,42.89,0,111.1,13.12,23.75,118.3
"2009-07-10 01:46:30",1048835,2.77,156.7,1.28,0.047,20.27,109.2318,22.92,23.94,42.89,0,111.1,13.13,23.75,118.7
"2009-07-10 01:47:00",1048836,3.038,159.1,3.141,0.258,20.31,109.2309,22.92,23.94,42.88,0,111.1,13.13,23.75,121.1